Regional Weather Roundup
Issued by NWS

Home | Current Version | Previous Version | Text Only | Print | Product List | Glossary On
Versions: 1 2 3 4 5 6 7 8 9 10 11 12 13 14 15 16 17 18 19 20 21 22 23 24 25 26 27 28 29 30 31 32 33 34 35 36 37 38 39 40 41 42 43 44 45 46 47 48 49 50
000
ASUS43 KMPX 192110
RWRMN
WEATHER ROUNDUP FOR MINNESOTA
NATIONAL WEATHER SERVICE TWIN CITIES/CHANHASSEN MN
400 PM CDT TUE SEP 19 2017


NOTE: "FAIR" INDICATES FEW OR NO CLOUDS BELOW 12,000 FEET WITH NO
SIGNIFICANT WEATHER AND/OR OBSTRUCTIONS TO VISIBILITY. N/A MEANS
CURRENT SKY AND/OR WEATHER CONDITIONS ARE NOT AVAILABLE.

MNZ060>063-068>070-192200-
   Twin Cities Metro

CITY           SKY/WX    TMP DP  RH WIND       PRES   REMARKS
TWIN CITIES    CLOUDY    79  63  57 SE16G26   29.77F
ST PAUL        PTSUNNY   78  63  59 SE14G26   29.77F
CRYSTAL        CLOUDY    78  60  53 SE21G29   29.75F
BLAINE         PTSUNNY   79  63  57 SE14G23   29.77F
LAKEVILLE      MOSUNNY   79  63  57 SE13G18   29.77F
EDEN PRAIRIE   CLOUDY    78  63  59 SE16G25   29.74F
SOUTH ST PAUL  PTSUNNY   78  60  54 S10G20    29.77F
LAKE ELMO      FAIR      77  64  65 SE10G16   29.80F
$$
MNZ001>005-007-008-013>017-022>024-027-028-192200-
   Northwest Minnesota

CITY           SKY/WX    TMP DP  RH WIND       PRES   REMARKS
BEMIDJI        CLOUDY    68  60  76 SE17G29   29.70F
HALLOCK        CLOUDY    73  63  68 SE13      29.56F
ROSEAU         CLOUDY    70  63  78 SE18      29.66F
WARROAD        CLOUDY    70  63  78 SE15G23   29.68F
THIEF RVR FALL CLOUDY    73  61  64 SE22G28   29.62F
CROOKSTON      CLOUDY    75  61  60 S20G26    29.59S
FOSSTON        CLOUDY    72  59  64 SE17G26   29.64F
DETROIT LAKES  CLOUDY    72  61  68 SE16G24   29.65F
MOORHEAD       CLOUDY    73  63  68 SE18G32   29.58S
PARK RAPIDS    PTSUNNY   73  63  70 SE20      29.69F
MAHNOMEN       FAIR      71  61  72 SE18G28   29.63S
$$
MNZ006-009>011-018-025>026-192200-
   North Central Minnesota

CITY           SKY/WX    TMP DP  RH WIND       PRES   REMARKS
BAUDETTE       CLOUDY    71  60  68 SE18G28   29.70F
FLAG ISLAND    CLOUDY    64  57  77 E8        29.69F
INTL FALLS     CLOUDY    70  58  65 SE13G21   29.77F
WASKISH        CLOUDY    70  61  73 SE15G24   29.72F
BIG FORK       MOSUNNY   70  61  73 SE10      29.77F
LONGVILLE      CLOUDY    72  61  68 SE18      29.75F
GRAND RAPIDS   PTSUNNY   72  61  68 SE16G24   29.78F
CRANE LAKE     CLOUDY    70  61  73 SE3       29.83F
ORR            PTSUNNY   72  57  60 SE9G16    29.77F
COOK           PTSUNNY   70  59  68 S9        29.82F
WALKER         MOCLDY    67  61  80 SE9G17    29.71F
$$
MNZ012-019>021-037-192200-
   Northeast Minnesota

CITY           SKY/WX    TMP DP  RH WIND       PRES   REMARKS
DULUTH         MOSUNNY   67  59  75 E17       29.85F
ELY            PTSUNNY   70  55  60 SE13      29.86S
HIBBING        CLOUDY    69  59  70 SE14G24   29.81F
EVELETH        MOSUNNY   68  61  76 SE15      29.84F
DULUTH HARBOR  MOSUNNY   63  59  88 NE23      29.86S
TWO HARBORS    PTSUNNY   68  59  73 E15       29.86S
SILVER BAY     MOSUNNY   64  55  72 NE12G20   29.88F
GRAND MARAIS     N/A     63  54  72 NE14G23   29.92F
G MARAIS ARPRT SUNNY     63  48  59 E9G17     29.95F
$$
MNZ029>031-032-039>041-046>048-054>057-064-192200-
   West Central Minnesota

CITY           SKY/WX    TMP DP  RH WIND       PRES   REMARKS
FERGUS FALLS   CLOUDY    72  63  73 SE23G32   29.60F
WHEATON        CLOUDY    73  63  68 SE26G33   29.57F
MORRIS         MOSUNNY   75  64  69 SE29G37   29.59F
ALEXANDRIA     CLOUDY    72  63  73 SE21G30   29.68F
ELBOW LAKE     CLOUDY    73  65  77 SE18G28   29.62F HAZE
WADENA         CLOUDY    72  63  73 SE21      29.67F
GLENWOOD       CLOUDY    72  64  78 SE20G26   29.67F
APPLETON       CLOUDY    75  64  69 SE20G29   29.59F
BENSON         CLOUDY    73  64  73 S20G28    29.64F
ORTONVILLE     CLOUDY    73  64  73 NE21G28   29.56F
MADISON        CLOUDY    79  68  69 SE22G29   29.58F
WILLMAR        FAIR      75  66  73 SE22G29   29.67F
$$
MNZ033>034-036-042>043-049>051-058-059-192200-
   Central Minnesota

CITY           SKY/WX    TMP DP  RH WIND       PRES   REMARKS
ST CLOUD       CLOUDY    77  64  64 SE16G23   29.72F
PAYNESVILLE    CLOUDY    74  64  69 SE16G23   29.70F
AITKIN         CLOUDY    72  61  68 SE10G16   29.76F
PINE RIVER     CLOUDY    70  61  73 SE12      29.77F
BRAINERD       CLOUDY    72  61  68 SE10G20   29.74F
STAPLES        CLOUDY    72  61  68 SE16G23   29.70F
LONG PRAIRIE   CLOUDY    72  63  73 E15G21    29.70F
LITTLE FALLS   CLOUDY    72  55  56 SE14G20   29.73F
LITCHFIELD     CLOUDY    77  66  69 SE14G25   29.71F
BUFFALO        PTSUNNY   78  61  55 SE12G24   29.74F
MAPLE LAKE     CLOUDY    78  65  63 SE12G20   29.74F
HUTCHINSON     CLOUDY    77  67  70 SE20      29.72F
$$
MNZ037-044-045-052-053-192200-
   East Central Minnesota

CITY           SKY/WX    TMP DP  RH WIND       PRES   REMARKS
PRINCETON      CLOUDY    75  64  69 SE13G18   29.75F
MORA           CLOUDY    73  59  60 S8        29.79F
CAMBRIDGE      CLOUDY    79  63  57 SE9G18    29.77F
RUSH CITY      PTSUNNY   75  62  62 SE14      29.79F
MOOSE LAKE     CLOUDY    72  61  68 SE5       29.79F
HINCKLEY       CLOUDY    73  63  68 SE8G17    29.80F
CLOQUET        SUNNY     66  55  68 E12       29.83F
MCGREGOR       CLOUDY    72  61  68 SE17G23   29.79F
$$
MNZ071>073-080-081-089-090-097-098-192200-
   Southwest Minnesota

CITY           SKY/WX    TMP DP  RH WIND       PRES   REMARKS
MONTEVIDEO     CLOUDY    77  66  69 S22G28    29.61F
GRANITE FALLS  MOSUNNY   79  68  69 SE22G31   29.64F
CANBY          CLOUDY    77  67  72 E18G29    29.58F
MARSHALL       CLOUDY    78  68  71 SE24      29.60F
REDWOOD FALLS  CLOUDY    80  66  62 SE16      29.64F
OLIVIA         CLOUDY    77  66  69 SE17G26   29.66F
PIPESTONE      CLOUDY    77  66  69 S14G29    29.60F
WINDOM         CLOUDY    79  66  65 SE21G29   29.67F
WORTHINGTON    PTSUNNY   77  68  73 SE15G25   29.65F
JACKSON        CLOUDY    77  66  69 SE20G26   29.70F
TRACY          PTSUNNY   78  69  73 SE16G30   29.63F
SLAYTON        CLOUDY    77  56  47 SE17G25   29.66F
$$
MNZ065>067-074>077-082>085-091>093-192200-
   South Central Minnesota

CITY           SKY/WX    TMP DP  RH WIND       PRES   REMARKS
MANKATO        PTSUNNY   79  65  62 SE20G29   29.73F
NEW ULM        MOSUNNY   77  66  69 SE14G25   29.70F
ST JAMES       MOSUNNY   79  64  61 SE18G28   29.71F
FAIRMONT       PTSUNNY   79  67  66 SE24G30   29.70F
GLENCOE        MOSUNNY   79  68  67 SE14G22   29.72F
FARIBAULT      SUNNY     79  64  61 SE18G25   29.77F
OWATONNA       SUNNY     81  64  57 SE18G25   29.77F
WASECA         SUNNY     79  63  57 SE14G21   29.77F
ALBERT LEA     CLOUDY    81  64  57 S17G28    29.77F
$$
MNZ078>079-086>088-094>096-192200-
   Southeast Minnesota

CITY           SKY/WX    TMP DP  RH WIND       PRES   REMARKS
ROCHESTER      PTSUNNY   75  63  66 SE13G24   29.83F
RED WING       PTSUNNY   77  63  61 SE9       29.79F
STANTON        SUNNY     80  62  54 SE15G22   29.77F
DODGE CENTER   SUNNY     79  61  53 SE20G25   29.81F
WINONA         SUNNY     79  61  53 S12G18    29.83F
AUSTIN         CLOUDY    79  63  57 SE15      29.80F
PRESTON        MOSUNNY   78  61  55 S16       29.85F
$$
ABBREVIATIONS USED IN REMARKS
   TC - TEMPERATURES IN CELSIUS
  WCI - WIND CHILL INDEX
   HX - HEAT INDEX
  VSB - VISIBILITY
$$




USA.gov is the U.S. government's official web portal to all federal, state and local government web resources and services.